74P/Smirnova-Chernykh (2001)

Japanese version
Home page
Total 6,336 html files since Dec. 4, 1995
Updated on February 19, 2005

---------------------------------------------------------------------

* Profile

* Pictures

* Orbital Elements

Epoch 2001 Jan. 11.0 TT = JDT 2451920.5  
T 2001 Jan. 15.62931 TT                                 Muraoka 
q   3.5457786            (2000.0)            P               Q
n   0.11602404     Peri.   86.65429     -0.95378992     -0.27843852
a   4.1632969      Node    77.15583     +0.20844122     -0.88386681
e   0.1483243      Incl.    6.65234     +0.21641870     -0.37583435
P   8.49
From 540 observations 1967-2000, mean residual 0".85.  Nongravitational
   parameters A1 = +0.16 +/- 0.09, A2 = -0.3942 +/- 0.0047, R0 = 3.50.

* Finding Charts

* Magnitudes Graph

        m1 = 2.0 + 5 log d + 20.0 log r

---------------------------------------------------------------------

The orbital elements are calculated by Kenji Muraoka.
The charts are made with StellaNavigator Ver.2.0 for Windows (AstroArts / ASCII).
The magnitudes graphs are made with Comet for Windows.

---------------------------------------------------------------------

Copyright(C) 1995-2008 Seiichi Yoshida (comet@aerith.net). All rights reserved.